• In Italy
  • List of Countries
  • For 7 days
  • Water Temperature
  • Satellite Maps
  • Weather Map
  • Weather Widgets
  • user-avatar
    Login

    Hourly Weather Pervomajskoe

    Today, 21 February, Wednesday

    Time Temperature Precipitation Wind Pressure Humidity
    00:00 -4°C° 0 mm 6 mps 757 mmHg 72%
    01:00 -4°C° 0 mm 6 mps 757 mmHg 74%
    02:00 -4°C° 0 mm 7 mps 757 mmHg 75%
    03:00 -4°C° 0 mm 7 mps 757 mmHg 76%
    04:00 -4°C° 0 mm 7 mps 757 mmHg 77%
    05:00 -4°C° 0 mm 7 mps 757 mmHg 78%
    06:00 -4°C° 0 mm 7 mps 757 mmHg 78%
    07:00 -4°C° 0 mm 7 mps 756 mmHg 77%
    08:00 -4°C° 0 mm 8 mps 756 mmHg 76%
    09:00 -2°C° 0 mm 8 mps 756 mmHg 70%
    10:00 -1°C° 0 mm 8 mps 756 mmHg 65%
    11:00 0°C° 0 mm 8 mps 756 mmHg 59%
    12:00 0°C° 0 mm 8 mps 756 mmHg 60%
    13:00 0°C° 0 mm 8 mps 756 mmHg 60%
    14:00 0°C° 0 mm 8 mps 755 mmHg 61%
    15:00 -1°C° 0 mm 8 mps 755 mmHg 64%
    16:00 -1°C° 0 mm 8 mps 755 mmHg 67%
    17:00 -2°C° 0 mm 8 mps 755 mmHg 70%
    18:00 -3°C° 0 mm 7 mps 755 mmHg 73%
    19:00 -3°C° 0 mm 7 mps 755 mmHg 75%
    20:00 -4°C° 0 mm 7 mps 755 mmHg 78%
    21:00 -4°C° 0 mm 7 mps 755 mmHg 79%
    22:00 -4°C° 0 mm 7 mps 755 mmHg 80%
    23:00 -4°C° 0 mm 7 mps 755 mmHg 81%

    Tomorrow, 22 February, Thursday

    Time Temperature Precipitation Wind Pressure Humidity
    00:00 -3°C° 0 mm 7 mps 755 mmHg 82%
    01:00 -3°C° 0 mm 7 mps 755 mmHg 84%
    02:00 -3°C° 0 mm 7 mps 754 mmHg 86%
    03:00 -3°C° 0 mm 7 mps 754 mmHg 86%
    04:00 -3°C° 0 mm 7 mps 754 mmHg 87%
    05:00 -3°C° 0 mm 7 mps 754 mmHg 88%
    06:00 -3°C° 0 mm 7 mps 754 mmHg 87%
    07:00 -3°C° 0 mm 7 mps 754 mmHg 86%
    08:00 -2°C° 0 mm 7 mps 754 mmHg 85%
    09:00 -2°C° 0 mm 7 mps 754 mmHg 81%
    10:00 -1°C° 0 mm 8 mps 754 mmHg 78%
    11:00 0°C° 0 mm 8 mps 754 mmHg 74%
    12:00 0°C° 0 mm 8 mps 754 mmHg 74%
    13:00 0°C° 0 mm 8 mps 754 mmHg 74%
    14:00 +1°C° 0 mm 8 mps 754 mmHg 74%
    15:00 0°C° 0 mm 8 mps 754 mmHg 76%
    16:00 -1°C° 0 mm 8 mps 753 mmHg 79%
    17:00 -1°C° 0 mm 8 mps 753 mmHg 82%
    18:00 -2°C° 0.1 mm 8 mps 753 mmHg 83%
    19:00 -2°C° 0.1 mm 7 mps 753 mmHg 84%
    20:00 -2°C° 0.1 mm 7 mps 753 mmHg 85%
    21:00 -2°C° 0.4 mm 7 mps 753 mmHg 86%
    22:00 -2°C° 0.4 mm 7 mps 753 mmHg 88%
    23:00 -2°C° 0.4 mm 7 mps 753 mmHg 89%

    Day after tomorrow, 23 February, Friday

    Time Temperature Precipitation Wind Pressure Humidity
    00:00 -2°C° 0.8 mm 7 mps 753 mmHg 91%
    01:00 -2°C° 0.8 mm 7 mps 753 mmHg 92%
    02:00 -2°C° 0.8 mm 6 mps 753 mmHg 93%
    03:00 -2°C° 0.4 mm 6 mps 753 mmHg 93%
    04:00 -3°C° 0.4 mm 6 mps 753 mmHg 93%
    05:00 -3°C° 0.4 mm 6 mps 753 mmHg 93%
    06:00 -3°C° 0.2 mm 6 mps 753 mmHg 93%
    07:00 -3°C° 0.2 mm 7 mps 753 mmHg 93%
    08:00 -3°C° 0.2 mm 7 mps 753 mmHg 93%
    09:00 -3°C° 0.1 mm 6 mps 753 mmHg 93%
    10:00 -3°C° 0.1 mm 6 mps 753 mmHg 93%
    11:00 -3°C° 0.1 mm 6 mps 753 mmHg 93%
    12:00 -3°C° 0 mm 6 mps 753 mmHg 92%
    13:00 -2°C° 0 mm 6 mps 753 mmHg 91%
    14:00 -1°C° 0 mm 5 mps 753 mmHg 90%
    15:00 -2°C° 0 mm 5 mps 753 mmHg 90%
    16:00 -2°C° 0 mm 5 mps 754 mmHg 90%
    17:00 -2°C° 0 mm 5 mps 754 mmHg 90%
    18:00 -2°C° 0 mm 5 mps 754 mmHg 90%
    19:00 -2°C° 0 mm 4 mps 754 mmHg 91%
    20:00 -2°C° 0 mm 4 mps 754 mmHg 91%
    21:00 -3°C° 0 mm 4 mps 754 mmHg 92%
    22:00 -2°C° 0 mm 3 mps 754 mmHg 93%
    23:00 -4°C° 0 mm 3 mps 754 mmHg 93%

    24 February, Saturday

    Time Temperature Precipitation Wind Pressure Humidity
    00:00 -4°C° 0 mm 3 mps 754 mmHg 93%
    01:00 -4°C° 0 mm 3 mps 754 mmHg 93%
    02:00 -4°C° 0 mm 3 mps 754 mmHg 93%
    03:00 -4°C° 0 mm 3 mps 754 mmHg 92%
    04:00 -4°C° 0 mm 3 mps 753 mmHg 92%
    05:00 -3°C° 0 mm 2 mps 753 mmHg 91%
    06:00 -3°C° 0 mm 2 mps 753 mmHg 90%
    07:00 -3°C° 0 mm 2 mps 754 mmHg 88%
    08:00 -3°C° 0 mm 2 mps 754 mmHg 87%
    09:00 -2°C° 0 mm 2 mps 754 mmHg 83%
    10:00 -1°C° 0 mm 2 mps 754 mmHg 80%
    11:00 +2°C° 0 mm 1 mps 754 mmHg 77%
    12:00 +1°C° 0 mm 2 mps 753 mmHg 75%
    13:00 +2°C° 0 mm 2 mps 753 mmHg 73%
    14:00 +2°C° 0 mm 2 mps 753 mmHg 72%
    15:00 +2°C° 0 mm 2 mps 753 mmHg 74%
    16:00 +2°C° 0 mm 2 mps 753 mmHg 77%
    17:00 +2°C° 0 mm 2 mps 753 mmHg 80%
    18:00 0°C° 0 mm 3 mps 753 mmHg 81%
    19:00 0°C° 0 mm 3 mps 753 mmHg 82%
    20:00 -1°C° 0 mm 3 mps 753 mmHg 83%
    21:00 -1°C° 0 mm 3 mps 753 mmHg 83%
    22:00 -3°C° 0 mm 4 mps 753 mmHg 82%
    23:00 -4°C° 0 mm 4 mps 753 mmHg 82%

    25 February, Sunday

    Time Temperature Precipitation Wind Pressure Humidity
    00:00 -4°C° 0 mm 4 mps 754 mmHg 82%
    01:00 -5°C° 0 mm 4 mps 754 mmHg 83%
    02:00 -5°C° 0 mm 4 mps 754 mmHg 83%
    03:00 -5°C° 0 mm 4 mps 754 mmHg 83%
    04:00 -7°C° 0 mm 5 mps 754 mmHg 83%
    05:00 -7°C° 0 mm 5 mps 754 mmHg 82%
    06:00 -7°C° 0 mm 5 mps 754 mmHg 79%
    07:00 -7°C° 0 mm 5 mps 754 mmHg 76%
    08:00 -7°C° 0 mm 5 mps 755 mmHg 74%
    09:00 -6°C° 0 mm 5 mps 755 mmHg 70%
    10:00 -6°C° 0 mm 5 mps 755 mmHg 67%
    11:00 -5°C° 0 mm 5 mps 755 mmHg 64%
    12:00 -5°C° 0 mm 5 mps 755 mmHg 63%
    13:00 -5°C° 0 mm 6 mps 755 mmHg 62%
    14:00 -5°C° 0 mm 6 mps 755 mmHg 61%
    15:00 -5°C° 0 mm 6 mps 755 mmHg 63%
    16:00 -6°C° 0 mm 6 mps 755 mmHg 66%
    17:00 -6°C° 0 mm 6 mps 755 mmHg 68%
    18:00 -8°C° 0 mm 7 mps 755 mmHg 70%
    19:00 -8°C° 0 mm 7 mps 756 mmHg 72%
    20:00 -9°C° 0 mm 7 mps 756 mmHg 74%
    21:00 -9°C° 0 mm 7 mps 756 mmHg 75%
    22:00 -10°C° 0 mm 8 mps 756 mmHg 76%
    23:00 -10°C° 0 mm 8 mps 756 mmHg 76%

    26 February, Monday

    Time Temperature Precipitation Wind Pressure Humidity
    00:00 -11°C° 0 mm 8 mps 756 mmHg 77%
    01:00 -11°C° 0 mm 8 mps 756 mmHg 77%
    02:00 -11°C° 0 mm 8 mps 756 mmHg 78%
    03:00 -11°C° 0 mm 8 mps 756 mmHg 78%
    04:00 -12°C° 0 mm 8 mps 756 mmHg 78%
    05:00 -12°C° 0 mm 8 mps 756 mmHg 78%
    06:00 -12°C° 0 mm 8 mps 757 mmHg 76%
    07:00 -12°C° 0 mm 8 mps 757 mmHg 74%
    08:00 -12°C° 0 mm 8 mps 757 mmHg 72%
    09:00 -11°C° 0 mm 8 mps 757 mmHg 68%
    10:00 -9°C° 0 mm 7 mps 757 mmHg 64%
    11:00 -9°C° 0 mm 7 mps 757 mmHg 60%
    12:00 -8°C° 0 mm 7 mps 757 mmHg 58%
    13:00 -8°C° 0 mm 8 mps 756 mmHg 57%
    14:00 -7°C° 0 mm 8 mps 756 mmHg 55%
    15:00 -8°C° 0 mm 8 mps 756 mmHg 57%
    16:00 -8°C° 0 mm 8 mps 756 mmHg 60%
    17:00 -10°C° 0 mm 8 mps 756 mmHg 62%
    18:00 -10°C° 0 mm 8 mps 756 mmHg 64%
    19:00 -10°C° 0 mm 8 mps 756 mmHg 67%
    20:00 -10°C° 0 mm 9 mps 756 mmHg 70%
    21:00 -10°C° 0 mm 9 mps 755 mmHg 71%
    22:00 -10°C° 0 mm 9 mps 755 mmHg 73%
    23:00 -10°C° 0 mm 9 mps 755 mmHg 74%
    Show more